Tracking 18957 objects as of 24-Jan-2018
HD Live streaming from Space Station
objects crossing your sky now

METEOR 2-21

Track METEOR 2-21 now!
10-day predictions
METEOR 2-21 is classified as:


NORAD ID: 22782
Int'l Code: 1993-055A
Perigee: 941.1 km
Apogee: 974.0 km
Inclination: 82.5 °
Period: 104.1 minutes
Semi major axis: 7328 km
RCS: 4.7976 m2 (large)
Launch date: August 31, 1993
Source: Commonwealth of Independent States (former USSR) (CIS)
Launch site: PLESETSK MISSILE AND SPACE COMPLEX (PKMTR)
aabbcc
Your satellite tracking list
Your tracking list is empty




NASA's NSSDC Master Catalog

Two Line Element Set (TLE):
1 22782U 93055A   18022.91136750 +.00000022 +00000-0 +67858-5 0  9991
2 22782 082.5472 209.2097 0022446 171.6557 296.8721 13.83806110231811
Source of the keplerian elements: AFSPC